Wind_Speed
59 54 50 49 51 54 55 56 56 56 56 56 56 56 55 56 56 56 55 55 54 54 54 54 54 55 55 55 55 55 56 56 56 57 57 58 58 57 57 57 59 62 64 66 67 68 68 68 67 66 66 66 67 66 66 66 65 64 63 61 60 58 57 55 54 52 51 50 48 48 47 47 47 47 47 48 48 49 49 50 50 51 51 51 52 52 53 53
62 61 57 52 49 47 47 48 49 50 50 50 51 51 51 52 53 54 54 54 53 53 53 53 53 53 53 52 51 50 50 51 52 53 54 54 55 56 58 60 63 64 65 65 66 66 66 65 65 65 65 64 63 62 61 59 58 56 54 52 50 47 45 44 42 41 40 40 40 41 41 42 44 45 46 47 48 49 50 51 52 52 53 53 53 53 53 53
64 62 61 59 56 49 46 45 44 45 45 45 45 45 45 44 45 47 48 49 49 50 50 50 50 50 50 49 48 48 48 49 50 51 53 54 56 59 61 63 63 62 62 63 63 63 63 63 62 61 59 57 55 53 51 49 47 44 41 39 37 35 34 34 34 34 35 36 37 39 40 41 42 44 45 46 47 49 50 51 52 53 54 55 55 55 54 54
67 64 62 61 61 59 55 50 46 45 44 45 45 45 45 44 44 45 45 46 47 48 48 48 48 49 50 50 50 50 51 52 53 55 57 59 61 62 62 61 60 60 60 61 61 60 59 57 54 52 49 47 44 41 38 35 33 30 29 29 29 30 30 31 31 32 32 33 34 35 36 37 38 39 40 42 43 45 47 48 50 51 52 53 53 54 54 54
69 67 64 61 60 62 62 60 56 54 52 50 49 49 50 50 50 50 49 48 47 47 48 48 49 50 51 52 52 53 54 56 58 60 61 62 62 61 60 59 59 58 57 56 55 52 48 45 42 39 36 33 29 26 25 23 23 24 24 25 26 27 27 27 28 28 28 28 29 29 30 31 32 34 35 37 39 40 42 44 45 47 48 49 50 51 52 53
70 69 68 65 62 60 61 63 62 62 61 59 56 54 54 55 57 58 57 56 55 54 54 54 54 54 55 56 56 57 59 60 61 62 62 61 60 59 57 56 54 52 49 46 42 38 34 31 27 24 21 19 18 17 18 19 20 21 21 22 23 23 23 24 24 25 25 26 27 27 28 29 29 30 31 33 34 36 37 39 41 43 44 46 48 49 50 51
69 69 69 69 67 64 61 60 61 62 62 63 62 58 56 56 57 58 59 59 60 61 61 60 60 60 60 60 60 61 61 61 60 58 57 55 54 52 49 46 42 37 33 29 26 23 19 16 14 13 13 13 14 15 16 17 17 18 18 18 19 19 20 21 21 22 22 23 24 24 25 25 26 27 27 28 30 31 33 35 37 39 41 43 45 47 49 50
70 69 68 68 68 67 65 63 61 61 61 61 62 62 60 59 59 59 59 60 61 61 61 61 60 60 60 60 60 59 57 54 52 49 47 45 42 38 33 28 23 19 17 14 12 10 9 9 10 10 10 11 12 12 13 14 14 14 14 14 14 14 14 15 15 16 16 17 18 18 19 20 21 22 23 24 26 27 29 31 34 36 38 40 42 44 46 47
72 70 69 67 66 66 65 65 63 62 62 62 63 64 64 64 64 64 64 64 64 64 64 64 63 61 59 56 53 48 44 41 38 36 32 28 23 18 13 10 8 7 6 6 6 7 8 8 8 7 8 8 9 9 9 10 9 8 8 8 8 8 8 9 10 10 12 13 14 15 17 18 19 20 21 22 24 25 26 28 30 32 34 36 38 40 41 42
70 70 70 69 68 66 65 64 64 63 63 64 65 66 67 67 66 65 65 64 63 61 59 57 53 49 44 39 35 31 27 24 21 17 12 7 3 3 5 5 6 6 7 8 8 8 5 3 5 6 5 5 5 5 4 3 3 3 3 5 7 7 8 9 10 11 12 14 15 16 17 18 19 20 21 21 23 24 25 26 27 28 29 31 32 34 36 37
66 67 68 68 68 67 67 67 66 66 65 65 64 62 60 58 55 52 49 47 44 40 38 34 30 26 22 19 17 13 10 6 3 2 5 8 9 10 9 9 11 12 15 15 12 10 9 12 15 12 10 9 8 8 8 9 9 8 8 10 11 11 12 13 15 16 17 18 19 20 20 20 20 20 21 22 23 23 24 24 25 25 26 27 28 29 31 32
51 54 55 56 57 58 58 58 57 55 53 49 46 42 38 34 31 29 26 24 21 19 17 14 13 11 8 7 7 8 9 10 12 13 14 15 16 17 18 20 22 24 26 26 23 22 23 26 27 23 21 19 17 18 18 18 18 17 17 18 18 19 21 21 22 23 24 25 25 27 27 26 26 26 27 27 28 29 28 28 27 27 27 27 27 28 29 30
30 32 33 33 34 34 34 33 32 30 28 26 23 22 20 18 16 15 13 12 11 10 10 11 13 14 16 16 16 18 18 18 18 19 22 24 26 27 29 31 32 32 33 32 30 30 31 33 31 28 27 25 24 25 25 25 25 24 25 25 26 28 30 30 30 32 33 35 35 37 38 37 38 39 39 39 38 38 37 36 35 32 31 30 30 30 31 31
21 21 20 20 19 18 18 18 18 17 17 16 16 15 14 14 13 14 15 16 17 18 20 22 23 24 23 22 23 23 23 24 26 29 32 34 34 35 34 34 34 34 34 33 31 31 33 34 31 28 27 27 27 28 28 28 28 28 28 28 29 31 33 35 36 38 40 41 42 44 46 47 49 50 50 50 50 48 47 46 44 41 38 36 34 34 35 35
21 20 19 18 18 18 18 18 18 18 18 18 18 19 20 21 22 23 25 26 27 29 30 32 32 28 27 29 29 29 31 33 36 37 37 36 36 36 35 35 34 34 33 32 30 31 33 33 30 28 28 28 29 29 30 30 29 30 30 30 30 31 33 35 37 39 41 44 45 48 50 52 54 55 57 57 58 57 56 55 53 51 48 45 42 40 38 39
22 21 21 21 21 22 22 23 23 24 25 26 27 28 29 30 32 33 34 35 36 37 36 36 36 32 32 35 35 37 39 40 39 37 36 36 35 34 34 33 32 31 30 30 29 30 32 31 29 28 28 28 29 30 30 31 31 31 31 32 32 32 34 35 38 40 41 44 46 48 50 52 55 57 58 59 61 62 62 61 60 58 56 53 51 48 44 43
24 24 24 25 25 26 27 28 30 31 33 34 35 36 37 38 39 40 41 41 41 42 40 38 37 36 36 39 41 42 42 40 38 37 36 35 35 34 33 32 31 29 29 28 27 28 29 29 26 26 27 27 28 29 31 32 32 32 32 33 33 34 35 37 39 40 42 44 45 48 50 52 54 56 58 59 61 63 64 65 64 63 61 58 56 54 52 49
30 30 31 32 32 34 35 37 38 40 41 42 42 42 43 44 44 45 45 45 44 44 42 39 38 38 40 42 43 42 40 38 37 36 35 35 35 33 32 31 30 29 28 27 26 25 27 27 25 24 24 26 29 31 33 33 33 33 33 33 34 35 36 37 39 40 42 44 45 47 50 52 54 56 57 59 60 62 64 66 66 65 63 61 59 58 57 55
40 41 42 42 43 44 45 46 46 46 47 47 47 48 49 48 48 47 47 46 46 45 43 40 39 40 40 40 39 39 37 35 33 32 32 32 32 31 31 31 31 30 29 28 26 25 26 25 22 20 22 26 30 32 33 33 33 33 33 34 34 35 36 37 38 40 41 43 44 46 49 51 53 55 57 59 60 62 63 65 66 66 65 63 61 60 59 58
50 50 50 50 50 50 50 50 51 51 51 51 52 52 52 50 49 47 46 45 45 45 43 41 41 40 38 36 34 33 32 30 28 28 28 28 28 28 28 29 31 30 29 28 27 26 26 24 19 19 24 27 30 31 32 32 33 33 34 34 35 35 36 37 38 39 41 42 43 45 48 50 52 54 56 58 60 61 63 64 66 66 66 65 63 62 61 60
55 55 54 54 54 54 53 54 54 54 55 55 54 52 51 50 48 46 44 43 44 43 41 40 40 38 36 33 31 30 29 29 27 26 25 25 26 26 26 28 29 27 26 27 27 27 26 23 20 22 25 26 26 28 29 31 32 33 34 34 35 35 36 37 38 39 40 42 43 44 47 49 51 53 55 57 59 61 63 64 65 66 66 66 65 64 63 62
58 58 57 57 57 56 56 56 56 55 55 54 52 50 49 47 46 43 41 41 41 40 39 39 38 36 34 33 31 30 30 29 27 25 25 25 25 26 26 26 25 25 26 27 26 26 25 24 25 26 26 25 24 24 26 28 29 31 33 34 35 35 36 37 38 39 40 42 43 45 46 48 50 52 54 56 58 61 62 63 64 65 66 66 66 65 64 64
60 60 59 59 58 58 57 56 56 54 53 52 50 48 47 46 44 42 40 40 39 38 38 37 36 35 33 32 30 30 29 28 26 24 24 25 25 25 25 24 24 25 26 25 25 25 25 27 28 29 28 27 25 24 24 25 26 28 31 33 34 36 36 37 37 38 40 41 43 45 46 48 50 52 54 55 57 59 61 62 63 64 65 65 65 65 65 65
60 59 59 58 57 57 56 55 54 52 51 50 49 48 47 45 43 41 40 39 38 38 37 36 34 33 31 30 30 29 28 26 25 23 24 25 24 24 23 22 23 24 24 24 24 25 26 27 28 28 29 29 28 27 26 25 26 27 29 32 34 36 36 37 37 38 39 40 42 44 45 47 49 51 52 54 55 57 58 60 61 62 63 64 64 63 64 64
58 57 57 56 55 54 54 52 51 51 50 49 48 47 45 43 41 40 38 37 36 36 35 34 32 31 30 29 28 27 26 25 24 23 23 24 23 22 21 21 22 22 23 23 24 24 24 25 25 26 28 29 29 29 28 28 28 28 30 32 34 35 36 37 37 38 39 40 41 43 44 45 47 48 50 51 53 54 56 58 60 61 62 62 63 62 62 62
55 54 54 53 52 51 51 50 49 49 48 47 45 43 42 40 39 37 35 34 34 33 32 32 31 30 29 29 28 26 25 25 23 23 23 22 21 20 20 20 21 22 22 23 23 23 23 23 24 25 26 27 27 28 28 29 29 31 32 33 34 36 37 37 37 38 39 40 41 42 43 44 45 46 48 49 50 52 54 56 58 59 60 61 61 61 61 60
52 51 50 50 49 48 48 47 46 46 45 43 42 40 39 37 36 34 33 32 31 31 30 30 30 29 29 28 28 27 26 24 23 23 22 21 20 19 20 20 21 22 22 22 22 22 23 23 24 24 25 26 26 27 27 28 30 32 33 35 36 36 37 37 37 38 39 40 42 43 44 45 45 46 47 48 49 51 53 55 56 58 58 59 59 59 59 59
48 48 47 47 46 46 45 44 44 42 41 40 38 37 36 34 33 32 31 31 30 29 29 29 29 29 28 28 27 26 25 24 23 23 22 20 20 20 20 21 22 22 22 22 22 22 22 22 23 23 24 24 25 26 28 30 31 32 34 35 35 37 37 37 37 37 38 40 41 43 44 45 46 47 47 48 49 51 52 54 55 56 57 57 57 57 57 57
45 45 44 44 43 43 42 41 40 39 38 37 36 35 34 32 31 30 30 29 28 28 28 28 28 27 27 26 26 25 23 23 23 22 20 19 19 20 20 21 22 22 21 21 21 21 21 20 21 21 22 23 25 26 28 29 31 32 34 34 34 36 37 38 38 37 38 39 41 43 44 45 46 47 47 48 49 50 52 53 54 55 55 56 56 56 56 56
42 41 41 40 40 39 38 37 37 35 35 34 33 32 32 31 30 30 29 28 27 26 26 26 25 25 25 24 24 23 22 22 21 20 18 18 19 20 21 21 21 20 20 21 21 20 20 20 21 20 21 23 24 26 27 28 30 32 33 34 35 36 36 37 38 38 38 39 41 42 43 44 45 46 47 47 49 50 51 52 52 53 54 55 55 55 56 56
38 38 37 37 36 35 35 34 33 33 32 31 31 30 30 29 29 29 28 26 26 25 24 24 23 23 22 22 21 21 21 20 19 18 18 19 20 20 20 20 20 20 20 20 20 21 21 21 21 22 23 24 25 26 26 28 30 31 33 35 35 35 36 37 38 38 39 39 41 42 43 44 44 45 46 47 48 49 50 50 52 52 53 54 54 55 55 55
35 34 34 33 33 32 32 31 30 30 29 29 28 28 27 27 27 26 26 25 24 23 22 22 21 21 20 20 19 19 19 18 18 18 18 18 18 18 18 18 19 20 21 21 21 22 22 22 22 23 24 24 25 25 26 27 29 30 31 32 34 35 37 38 38 39 38 39 40 42 44 44 44 45 46 46 47 47 48 49 50 52 53 54 54 54 54 54
32 32 31 31 30 29 29 28 28 27 26 26 26 25 25 24 24 24 23 22 22 21 21 20 19 19 18 18 18 17 17 17 17 17 17 16 16 17 17 18 20 21 21 22 22 22 23 23 24 24 24 24 25 26 27 28 29 30 32 33 34 35 36 37 38 39 39 38 39 41 44 45 45 45 45 46 47 47 48 48 49 50 51 53 53 53 53 53
30 30 29 28 28 27 26 26 25 25 24 23 23 22 22 22 21 21 20 20 20 19 19 18 18 17 17 16 16 16 16 16 16 15 15 16 16 17 17 18 19 20 21 22 22 23 24 25 25 25 25 26 26 27 27 29 30 32 33 34 35 35 35 36 37 38 39 39 38 40 43 45 46 46 46 46 46 47 48 48 49 49 50 51 52 52 52 52
27 27 26 26 25 24 24 23 22 22 21 21 20 20 19 19 18 18 18 18 17 17 17 16 16 16 15 15 15 15 15 15 14 14 14 15 16 16 17 17 18 20 21 22 22 23 24 25 25 26 26 27 27 27 28 30 31 32 34 35 37 38 38 38 38 39 39 40 40 40 42 44 45 46 47 47 46 46 47 48 48 49 49 50 50 50 51 51
24 24 23 23 22 21 21 20 19 19 18 17 17 17 16 16 16 16 16 16 16 16 15 15 15 14 14 14 14 14 14 14 13 13 13 14 14 15 16 17 18 20 21 22 22 23 23 24 25 26 26 27 28 29 30 31 33 34 35 37 38 39 39 40 40 40 40 41 42 41 42 44 44 44 46 47 47 47 47 47 47 48 48 50 50 49 50 50
21 20 20 19 19 18 17 17 16 15 15 15 14 14 14 14 14 14 14 15 15 15 14 14 14 14 13 13 13 13 14 14 13 13 13 14 14 15 15 16 18 19 20 21 22 23 23 23 24 25 26 27 28 29 31 33 35 36 37 37 38 38 39 39 39 40 40 41 44 44 42 44 45 45 44 45 46 47 47 48 48 47 47 48 50 50 49 49
17 17 16 16 15 14 14 13 13 12 12 12 12 12 12 12 13 13 12 13 13 13 13 13 13 13 13 13 13 14 14 14 14 14 15 15 15 15 15 16 17 18 18 20 21 22 22 23 23 24 25 26 28 29 31 34 35 36 37 37 38 37 38 38 38 39 39 40 43 45 44 43 45 47 46 45 45 46 47 48 48 48 47 47 49 50 49 48
14 13 13 12 12 11 11 11 11 11 11 11 11 11 11 11 10 10 10 10 10 11 11 11 11 12 12 13 13 14 14 14 14 15 16 16 16 16 16 17 17 17 18 18 20 21 22 22 23 24 25 27 29 30 32 34 36 37 37 38 38 38 38 39 40 40 40 40 42 44 44 43 45 49 48 46 45 46 47 48 48 48 48 48 49 49 49 48
11 10 10 9 9 9 9 9 9 9 9 9 9 9 8 8 7 7 8 8 9 9 9 9 10 11 11 12 12 13 13 13 14 15 16 16 17 17 17 17 18 18 18 19 19 20 22 23 24 26 27 28 29 32 33 34 36 37 38 39 39 39 40 41 42 42 42 43 43 44 43 41 44 49 50 48 47 46 47 48 49 49 48 48 48 49 49 48
7 7 7 6 6 6 6 6 6 7 6 6 6 6 5 5 5 6 6 7 7 8 8 8 9 10 10 11 12 12 13 14 15 16 17 17 18 18 18 18 19 19 20 20 20 21 22 24 26 28 30 30 32 34 35 35 36 37 38 38 38 40 41 42 42 43 45 46 46 48 45 41 44 49 50 49 48 47 47 48 49 49 48 48 48 49 49 48
4 4 4 3 3 3 3 3 4 4 4 4 4 4 4 4 5 6 6 7 7 8 8 8 9 10 11 12 13 13 14 15 16 17 18 18 19 20 20 20 20 20 20 21 22 22 23 25 27 29 31 33 34 35 36 36 36 37 37 38 39 41 42 42 42 43 47 49 49 51 49 45 45 48 49 48 49 49 49 49 50 49 48 46 46 48 49 48
4 4 3 2 2 1 1 1 2 3 3 2 3 3 4 4 5 6 7 7 8 8 8 9 10 11 12 13 13 14 14 15 16 17 18 18 19 20 20 20 20 20 21 21 22 23 25 26 28 30 33 35 37 38 38 38 37 36 37 38 40 43 44 44 44 45 48 51 51 52 52 49 47 49 49 49 49 50 50 50 50 50 49 47 45 45 48 49
6 5 5 4 3 3 3 3 3 3 3 3 4 4 4 5 5 6 6 7 7 7 8 9 10 11 12 13 13 14 14 15 16 16 17 18 18 19 19 19 20 20 21 22 22 24 25 25 26 28 31 34 37 38 39 39 37 36 37 40 43 46 47 47 45 45 48 52 53 53 53 52 50 50 51 51 51 51 51 50 49 48 49 48 45 44 45 47
7 7 7 6 5 4 4 3 3 3 3 4 4 4 4 5 5 5 6 6 7 7 8 9 10 11 12 13 14 14 15 15 16 16 17 18 18 19 19 19 20 21 22 24 25 25 26 26 26 26 29 32 34 35 37 38 37 38 40 43 46 49 49 48 47 47 49 52 54 54 54 53 52 53 54 53 53 53 55 54 49 45 46 47 46 45 45 46
8 7 7 6 5 5 4 3 3 3 3 4 4 4 4 5 5 5 6 7 8 9 10 10 11 12 13 14 15 15 16 16 17 17 18 18 19 20 20 21 21 22 24 25 27 29 30 30 30 30 32 34 36 38 40 40 40 41 43 45 47 50 51 50 49 49 50 53 55 55 55 53 52 54 56 56 56 57 58 57 50 44 44 46 46 46 45 46
9 8 7 7 6 6 6 5 5 5 5 5 5 5 6 6 7 7 8 9 10 11 11 12 12 13 14 14 15 16 17 17 18 18 19 20 21 21 21 22 23 24 26 27 28 30 32 33 35 36 36 37 39 41 42 42 43 44 45 46 48 50 51 51 51 50 52 54 55 56 56 54 53 54 56 56 59 61 62 58 49 43 44 46 46 46 45 45
11 11 10 10 9 9 8 8 8 8 8 8 8 9 9 10 10 10 11 11 12 12 13 13 14 14 15 15 16 16 17 18 18 19 20 21 22 22 23 24 25 26 27 28 29 30 32 34 36 39 39 39 40 42 43 44 45 46 47 47 48 49 51 52 52 52 54 56 57 57 58 57 55 56 57 58 61 64 64 59 50 43 41 43 45 46 44 43
15 15 14 14 13 12 12 12 12 12 12 12 12 12 13 13 13 13 13 13 14 14 15 15 15 16 16 16 16 17 18 18 19 19 20 22 23 24 24 25 27 28 28 29 30 30 32 34 36 40 42 41 42 43 43 44 47 49 48 47 48 49 50 51 52 53 56 58 59 58 59 59 59 59 59 61 63 65 64 57 50 44 39 39 41 43 43 44
19 19 19 18 17 16 16 16 16 16 15 15 15 15 16 16 16 16 16 16 16 16 17 17 17 17 17 17 18 18 19 19 19 20 21 23 24 24 25 26 27 28 29 30 31 31 33 34 36 38 41 42 43 44 45 45 47 49 48 47 48 49 50 51 53 55 57 59 60 60 60 60 61 62 62 63 64 64 60 53 48 45 40 38 40 42 43 45
23 23 23 22 22 21 20 20 20 19 18 18 18 18 18 18 18 19 19 19 19 18 18 18 18 18 19 19 19 19 19 19 20 21 22 24 24 25 27 27 28 29 30 31 32 33 33 35 35 37 40 41 43 45 47 46 46 47 47 47 48 49 51 52 54 56 58 60 61 62 61 60 62 63 64 65 63 61 56 50 46 45 43 41 42 43 45 47
27 26 26 26 26 25 24 24 23 22 22 21 21 21 21 21 21 21 21 22 21 21 20 20 19 19 20 20 19 19 19 20 21 23 23 24 25 27 28 29 29 29 30 31 32 34 34 35 36 37 39 41 43 45 46 45 44 45 47 47 48 50 52 53 54 56 58 61 62 63 63 62 62 63 64 65 63 57 52 48 45 44 44 45 46 47 47 48
Wind_Direction
216 217 220 223 226 228 230 232 234 235 236 238 240 242 244 247 249 251 253 255 258 260 263 265 267 269 270 272 273 275 276 277 277 277 278 279 279 280 281 284 286 288 290 292 293 294 295 296 296 296 296 296 296 296 295 295 294 294 294 294 295 295 295 296 296 297 297 298 298 298 299 299 300 300 301 301 300 300 300 299 298 297 296 296 295 294 293 292
218 220 221 224 227 229 230 233 235 238 240 242 244 246 248 250 251 252 254 257 260 262 264 267 269 270 271 273 274 276 277 277 278 278 279 279 280 281 284 287 289 291 292 293 294 294 295 295 295 294 294 294 294 294 294 294 294 295 295 296 296 297 298 299 301 302 304 305 306 307 307 308 308 308 308 307 307 306 305 305 304 303 303 302 301 300 299 298
220 222 224 225 227 228 229 230 233 237 241 243 246 249 251 253 254 255 257 260 262 265 267 269 270 272 273 275 276 278 279 279 280 279 279 280 281 284 287 289 291 292 292 293 293 293 292 292 292 292 293 293 294 294 294 295 295 296 297 298 300 302 304 306 308 310 310 311 311 311 311 310 309 308 307 306 305 305 304 304 304 304 304 304 303 303 302 302
221 223 226 227 228 229 230 231 233 237 240 242 245 248 251 252 254 255 257 260 263 265 267 268 270 271 273 275 277 279 279 279 279 280 281 282 285 288 289 290 291 291 291 290 290 290 290 290 291 292 293 294 295 295 295 296 298 300 303 306 308 310 311 311 312 312 311 310 309 308 307 307 306 305 304 303 302 301 301 301 301 301 301 302 302 303 303 303
222 224 226 229 231 232 233 235 237 240 242 244 245 246 249 251 253 255 257 260 262 263 265 267 269 271 273 275 277 278 279 280 281 282 284 285 287 288 288 288 289 289 288 288 288 289 290 292 293 294 295 295 297 298 301 305 308 311 313 312 312 312 311 311 309 308 307 305 304 303 303 303 302 302 302 301 300 300 299 299 299 300 300 300 301 301 302 302
224 226 227 230 233 234 235 237 240 242 244 246 248 248 249 251 253 256 258 260 262 264 266 269 271 273 275 277 278 279 280 281 282 283 284 284 284 285 285 286 286 287 287 288 289 291 293 295 296 298 300 303 307 311 314 315 315 315 314 312 311 311 308 307 307 306 304 303 302 301 302 301 301 300 301 300 300 300 300 300 301 301 302 302 302 302 303 302
225 227 229 231 233 236 238 239 241 243 244 246 248 250 252 253 255 257 258 260 262 264 266 269 271 273 274 276 277 279 280 281 281 281 281 281 282 283 285 285 287 288 289 291 294 298 301 304 310 312 315 318 320 320 318 316 315 315 315 312 311 311 310 311 311 309 308 307 306 305 305 304 303 304 304 304 304 305 305 305 305 305 305 305 305 305 305 305
227 228 230 232 234 236 239 241 243 244 246 247 249 251 254 256 258 260 261 263 266 268 269 270 271 273 274 275 276 277 278 278 278 278 279 281 282 284 286 288 291 294 298 304 310 318 329 335 332 326 326 325 322 322 320 318 318 317 315 314 316 319 320 321 320 317 315 314 313 313 313 312 312 313 313 312 313 312 312 311 311 310 309 308 308 307 307 307
228 230 233 235 237 239 241 243 246 248 249 250 252 253 255 257 259 261 263 266 268 269 270 271 271 272 273 273 274 274 273 274 275 277 279 281 283 287 294 304 319 332 341 351 359 3 359 342 336 338 334 330 328 329 326 322 321 320 321 327 336 342 343 342 339 334 331 329 328 328 327 326 326 327 325 323 322 321 320 320 319 318 317 315 313 312 311 310
229 231 234 237 239 241 244 246 249 250 252 253 255 256 258 260 262 263 264 265 265 265 266 266 267 267 268 268 269 269 270 271 272 274 277 284 311 17 36 42 47 48 47 43 33 25 12 360 25 23 2 0 1 358 357 359 14 14 17 35 42 36 26 18 10 3 359 356 353 350 346 343 342 341 337 336 335 333 333 332 331 329 327 325 323 321 319 317
231 233 236 239 241 244 246 249 251 253 255 256 258 258 259 260 260 259 259 258 257 257 258 257 258 258 257 256 257 255 252 248 226 119 97 89 83 80 79 79 78 77 75 74 75 83 92 84 74 71 72 79 87 93 93 91 88 85 80 73 65 53 44 36 31 26 23 19 16 14 11 7 3 360 358 357 356 355 353 350 346 342 340 338 336 334 332 329
229 232 235 238 241 243 245 247 249 251 252 252 252 251 249 247 245 244 243 242 241 240 239 236 231 221 199 181 165 140 119 106 101 100 98 94 92 93 94 94 94 93 92 93 96 97 94 87 84 86 90 95 100 96 92 88 86 84 79 72 66 59 53 50 48 45 43 41 39 38 36 33 29 26 24 22 20 18 16 11 7 2 358 355 352 349 347 344
208 214 219 223 226 230 232 233 233 233 232 230 227 224 221 219 217 214 210 202 193 185 176 169 159 142 126 117 113 109 106 105 106 104 101 99 99 100 100 100 99 98 97 95 94 94 93 88 85 86 89 91 91 88 85 82 80 77 73 69 67 63 58 57 56 54 52 51 49 48 45 43 41 39 37 34 32 30 27 25 22 18 14 10 6 3 1 358
176 180 184 188 191 193 195 195 195 194 192 191 189 186 181 175 168 160 151 145 142 140 138 131 121 115 114 112 111 112 112 111 108 104 103 103 102 101 101 100 99 97 95 92 91 91 91 86 82 83 85 84 83 81 79 77 75 71 68 67 66 62 57 56 55 53 52 50 48 47 46 45 43 42 40 38 36 34 32 30 27 25 22 20 17 15 13 12
156 158 158 158 158 156 155 155 154 154 154 153 151 148 143 139 135 131 129 128 127 125 121 114 110 114 118 116 115 115 113 109 107 106 106 104 102 100 99 99 97 94 92 90 88 88 87 82 78 79 81 80 79 77 75 73 71 67 64 63 62 58 54 52 50 49 48 46 45 44 44 43 43 42 40 39 37 35 33 31 29 28 26 24 23 22 21 20
147 147 146 145 143 140 138 137 136 135 135 134 132 129 127 125 123 122 121 120 118 116 113 112 116 121 120 116 116 114 111 109 108 107 105 103 101 99 97 95 94 93 92 90 87 85 83 80 76 76 78 78 77 75 73 70 65 62 60 59 58 55 52 49 47 45 44 43 42 41 41 40 40 39 38 37 36 35 34 32 31 29 28 26 25 24 24 23
138 139 139 137 136 134 131 130 128 127 125 123 122 120 119 119 118 119 118 117 116 115 114 116 119 121 119 118 117 114 112 109 107 104 102 100 98 96 95 94 93 92 91 87 85 84 83 80 77 75 76 77 76 74 70 65 61 58 56 55 54 52 50 47 44 42 41 40 38 38 38 37 36 36 35 35 34 33 33 32 31 30 29 28 26 25 25 24
129 129 128 127 126 125 124 122 121 119 118 117 117 116 116 116 117 117 116 116 115 114 114 115 118 119 120 119 116 114 112 109 105 102 99 97 94 92 91 90 88 87 85 82 81 81 80 77 73 72 74 75 73 69 65 60 56 53 51 51 50 49 47 45 43 40 38 37 35 34 35 35 34 33 33 32 32 31 31 31 31 30 30 29 28 26 26 25
119 119 118 118 118 117 117 116 115 114 114 114 115 115 116 116 116 115 115 114 112 110 111 113 115 116 115 115 115 115 113 110 106 102 98 94 90 87 84 83 82 79 76 74 74 73 72 70 69 72 73 71 66 62 58 55 51 49 47 46 46 45 44 42 41 38 36 34 33 31 32 32 31 31 31 30 30 30 30 29 29 30 30 30 30 28 27 26
113 113 113 113 112 112 112 112 113 113 114 115 115 116 115 115 114 112 111 111 109 109 109 109 109 109 109 111 113 113 112 111 108 105 100 95 90 85 81 78 76 73 70 69 69 68 67 65 66 67 65 62 59 56 54 51 47 45 43 42 42 41 39 38 37 36 34 32 31 29 29 30 29 29 28 28 28 28 28 28 28 28 29 30 30 30 29 28
109 109 109 109 110 110 111 112 113 114 115 115 115 115 114 112 111 110 110 110 108 107 106 105 104 105 107 109 110 111 111 110 108 105 102 98 93 87 82 77 73 71 69 68 65 63 62 60 60 58 56 54 53 51 49 47 44 42 40 39 38 37 37 36 34 32 31 30 28 27 27 27 27 27 26 26 26 26 26 26 26 27 28 28 29 29 29 28
108 109 109 110 111 111 112 113 113 113 114 114 113 112 111 110 110 109 110 108 106 104 104 104 104 105 107 108 110 112 111 109 106 104 101 96 90 85 79 76 73 70 67 64 62 60 58 56 54 52 51 50 48 45 44 42 39 38 37 36 35 35 34 33 32 30 29 27 26 25 25 25 25 24 24 24 24 24 24 24 24 25 26 27 28 28 28 27
109 109 109 110 110 110 111 111 111 111 111 111 110 110 109 108 107 108 108 106 105 105 104 104 104 105 106 107 109 109 107 105 103 101 96 90 85 81 77 74 71 68 65 62 60 58 55 52 51 49 48 48 46 43 41 38 34 33 33 33 33 32 32 32 31 29 28 26 25 24 23 23 23 23 22 22 22 22 22 22 22 23 24 25 26 26 26 26
108 109 109 109 109 109 108 108 108 108 108 108 108 107 106 105 105 106 107 107 106 105 104 104 105 105 106 106 106 105 103 102 100 96 91 86 82 79 76 73 70 67 64 62 59 55 52 50 48 47 46 45 44 42 40 37 33 30 30 30 30 30 30 30 29 28 27 25 24 23 23 22 21 21 20 20 20 19 19 20 20 21 22 23 24 25 25 24
108 108 108 107 106 106 106 106 106 106 106 105 104 103 103 104 105 106 106 106 106 105 106 106 106 106 106 105 103 102 102 99 96 93 89 86 83 79 76 72 69 66 62 59 55 52 49 47 45 44 44 43 43 41 39 37 33 31 30 29 28 27 27 27 27 26 25 24 23 22 22 21 20 20 19 18 18 17 17 17 18 19 20 22 23 23 23 23
106 106 105 105 105 105 104 104 105 105 103 102 101 101 102 102 103 105 106 106 107 107 106 105 104 104 103 101 101 100 98 96 94 92 88 85 81 78 73 68 64 61 57 54 51 49 46 44 43 42 41 40 40 39 37 35 33 31 30 29 27 25 25 25 24 23 22 22 22 21 20 19 19 19 18 17 16 16 15 15 16 17 18 20 21 21 22 22
105 105 105 105 105 105 104 104 103 102 101 100 100 101 101 102 103 104 106 106 105 105 103 101 99 98 97 96 95 94 92 92 90 87 83 80 76 71 67 62 58 55 51 49 46 44 41 39 36 35 35 34 34 34 34 33 32 30 28 27 26 24 23 22 22 21 21 20 20 19 19 18 17 16 16 16 15 14 14 14 14 15 16 17 19 20 20 21
105 106 106 106 105 104 104 103 102 101 101 101 101 100 100 101 102 103 103 102 100 99 97 95 94 93 91 91 90 89 88 87 84 81 77 74 70 65 61 57 54 50 47 44 42 41 39 36 33 30 29 29 30 30 30 30 30 29 27 26 24 23 22 21 20 20 19 19 18 18 17 17 15 14 13 13 13 13 13 13 13 13 13 14 16 17 18 19
106 106 106 106 105 104 103 103 102 101 101 100 100 99 99 99 99 99 97 95 94 92 90 88 87 86 85 85 85 85 84 82 79 75 72 70 68 66 62 58 54 51 47 44 42 39 37 35 32 28 25 25 26 27 27 27 26 26 26 25 23 22 20 19 18 18 18 18 17 17 16 15 14 13 11 10 10 10 11 11 10 10 11 11 13 14 15 17
106 105 105 105 104 104 103 102 102 101 100 100 99 98 98 97 95 93 92 90 89 87 85 84 82 81 80 79 78 77 76 74 72 71 71 70 67 64 61 57 54 52 48 45 42 39 36 33 30 27 24 23 23 24 25 25 25 24 23 22 21 21 19 18 15 14 15 15 15 15 14 13 12 11 10 9 8 7 7 8 8 8 8 9 10 11 13 14
104 104 104 104 104 104 103 103 103 102 101 100 99 97 96 94 93 91 90 88 86 84 83 81 79 78 77 75 73 72 70 68 68 69 68 65 60 56 54 52 49 47 45 43 42 40 38 34 30 27 25 23 22 22 22 23 23 23 21 19 17 16 16 17 16 14 12 12 12 12 12 11 10 9 9 8 6 5 4 4 5 5 6 7 8 8 9 11
104 105 105 105 105 105 105 105 104 103 101 100 98 96 94 92 90 89 87 85 84 82 80 79 77 75 73 71 69 67 64 62 61 59 57 53 52 51 49 46 42 40 38 38 37 36 36 35 33 29 25 23 22 22 21 22 22 22 21 19 16 14 12 12 13 14 12 10 9 9 9 9 8 7 5 5 4 4 2 1 1 2 3 4 5 6 7 8
106 106 106 107 107 107 107 106 105 102 100 97 95 92 90 88 86 84 82 80 79 78 78 77 75 74 71 68 65 61 57 54 52 49 47 46 46 45 43 39 36 34 32 31 30 30 30 31 30 27 24 22 21 20 20 19 19 19 18 17 17 15 12 10 8 10 11 10 7 6 6 6 5 5 3 2 1 1 0 360 359 359 359 360 1 3 4 5
106 106 106 106 107 106 105 104 102 99 96 93 89 87 84 82 80 78 77 76 76 76 75 75 74 72 70 67 63 59 54 50 46 43 40 38 36 35 35 33 30 28 27 26 25 26 26 25 24 22 20 17 17 16 16 16 16 15 14 13 13 12 12 11 8 6 7 9 7 4 4 4 2 2 2 1 359 358 357 357 357 356 356 356 357 358 360 1
106 106 106 105 105 103 102 100 97 94 91 87 84 81 79 77 75 74 74 74 74 74 72 71 70 68 67 64 60 56 53 50 46 42 37 33 31 29 28 26 24 23 22 21 22 23 22 20 19 18 15 13 12 12 12 13 13 12 12 10 9 8 7 8 8 5 4 6 7 3 0 2 1 359 359 359 358 356 355 354 354 353 353 354 354 354 355 357
105 105 104 103 102 101 99 97 93 90 87 84 81 78 76 74 72 72 72 72 70 68 67 64 63 61 58 55 51 48 47 45 44 42 37 33 29 27 25 22 19 17 17 17 17 19 20 19 16 14 12 9 8 7 8 9 9 10 10 8 7 5 5 5 5 4 2 1 4 3 358 358 0 359 356 356 356 355 353 352 351 350 350 350 352 352 353 354
102 103 102 102 100 98 96 93 90 86 84 81 78 76 73 72 71 70 69 66 62 59 57 55 54 52 49 45 41 40 40 41 40 37 35 32 29 26 24 21 18 16 15 14 14 14 15 16 14 12 11 8 6 5 5 6 7 8 9 8 7 5 4 4 4 4 1 358 1 3 358 353 356 358 356 354 353 352 352 350 349 348 347 347 349 351 351 352
102 101 101 100 99 96 93 90 87 84 81 78 75 73 72 71 70 68 63 57 52 48 45 44 43 41 38 37 36 36 38 39 37 32 28 26 25 24 22 20 18 17 16 14 11 9 10 11 10 9 9 8 7 5 4 5 8 9 10 8 7 5 4 4 5 4 3 358 358 1 358 352 352 354 354 352 350 350 350 349 347 346 346 345 345 348 350 350
104 103 102 101 99 98 95 91 89 85 81 78 75 73 72 70 66 62 54 47 41 38 36 35 34 33 33 35 37 37 38 36 33 28 23 21 21 21 20 19 18 17 16 14 10 6 4 4 4 5 7 9 9 8 7 7 8 9 8 6 4 4 3 3 4 4 4 2 360 2 359 351 349 351 351 350 349 348 348 348 346 344 344 343 343 345 347 349
109 108 107 106 104 100 96 91 86 81 76 72 69 66 64 60 54 47 39 33 29 28 29 29 29 29 31 35 35 34 32 29 26 23 20 18 18 18 17 16 14 13 11 10 8 5 1 359 0 4 8 11 11 10 8 7 6 5 4 3 4 4 3 2 1 3 4 3 1 3 2 352 348 350 350 348 347 346 347 348 347 344 343 342 341 342 344 347
116 115 114 111 106 101 94 87 80 71 66 61 54 49 44 37 29 22 19 18 18 20 22 24 25 25 26 27 27 25 22 20 19 18 15 14 12 12 11 9 8 7 5 4 4 5 5 2 360 2 6 9 9 9 8 6 5 4 2 3 5 5 3 1 359 360 2 2 0 2 3 356 350 352 351 347 345 344 345 347 347 344 342 341 339 338 340 343
143 139 137 136 126 110 93 79 68 59 53 43 31 20 11 6 3 2 4 9 12 14 16 17 18 17 17 17 17 16 14 13 13 12 10 7 5 4 4 3 3 2 3 4 4 5 7 5 2 360 2 4 5 7 8 7 6 4 3 3 4 4 2 360 358 357 359 1 359 358 0 358 353 355 355 350 347 345 343 344 345 343 340 340 339 336 336 339
206 202 201 203 207 231 330 9 17 22 20 7 359 355 353 355 358 1 5 10 14 13 12 12 11 10 10 10 10 10 8 8 7 6 5 3 2 0 1 3 4 3 3 5 4 1 1 2 2 359 358 359 1 3 5 6 6 5 2 0 360 1 1 359 357 355 355 357 356 355 356 357 354 355 356 354 352 351 347 344 342 340 338 339 341 338 335 336
239 242 247 254 263 279 299 319 334 346 348 350 358 2 2 4 7 8 8 10 11 8 4 3 1 1 2 2 2 1 1 2 2 1 1 1 1 0 1 3 4 3 360 359 359 357 355 357 2 1 357 357 359 359 359 2 4 3 360 357 356 358 359 358 356 354 353 353 353 352 352 353 353 354 354 354 353 355 353 348 343 339 335 335 340 341 337 334
250 254 259 266 275 282 292 304 321 339 348 354 1 4 1 0 1 359 355 354 353 350 349 350 350 350 352 353 352 352 355 356 356 356 355 356 357 357 357 358 358 357 355 353 353 353 353 354 358 1 359 357 359 357 354 356 0 1 359 356 353 353 355 356 354 352 352 350 350 349 350 350 350 351 352 352 352 353 354 351 345 339 334 333 338 342 338 335
249 253 255 260 264 267 273 286 303 322 332 340 345 342 337 334 334 335 335 335 336 336 339 341 342 343 344 346 345 345 347 347 346 347 347 348 351 352 352 353 353 353 352 352 350 349 350 350 351 355 358 357 357 356 353 353 357 0 358 354 351 351 351 352 352 351 350 349 347 347 348 349 348 348 350 350 350 351 352 351 347 339 334 333 337 341 340 338
249 252 254 257 258 260 268 279 292 300 305 308 309 308 308 309 311 315 317 320 323 325 329 331 333 335 337 338 339 337 338 339 339 340 342 344 346 348 349 350 351 350 349 350 350 348 348 348 347 349 355 356 355 354 351 350 354 358 357 353 350 349 349 349 350 349 348 347 346 345 346 348 347 346 347 348 349 349 349 350 348 340 335 333 336 341 342 341
256 259 260 262 264 267 274 279 286 291 293 294 294 295 296 298 301 305 308 311 314 316 319 322 324 326 329 331 333 332 332 335 336 338 340 342 343 345 345 346 347 347 347 349 350 349 348 348 346 347 351 355 353 351 350 349 352 356 355 351 349 349 348 348 348 347 345 345 345 345 345 345 345 344 345 346 347 347 347 348 348 343 338 336 337 340 342 343
261 263 264 266 267 270 275 278 280 284 287 288 289 289 290 292 295 298 301 304 306 308 310 314 317 320 323 326 329 330 330 332 334 336 338 339 339 340 341 342 343 345 347 349 350 350 349 349 349 346 348 352 351 349 349 348 349 352 351 348 348 348 347 347 346 345 344 343 344 345 345 344 343 343 343 344 345 345 346 347 347 345 343 341 340 340 341 341
262 264 266 267 268 270 274 276 277 278 280 282 284 285 286 289 291 292 295 296 298 301 305 309 313 316 319 321 323 326 328 330 330 332 334 334 335 336 338 341 343 345 348 349 349 349 348 349 350 347 346 348 348 346 346 347 348 349 347 346 346 346 345 345 345 344 343 343 343 345 345 343 342 341 341 341 342 342 344 346 345 345 345 343 342 341 340 340
262 264 265 266 267 269 270 271 273 274 276 278 279 280 282 284 286 287 289 292 295 298 302 306 309 311 313 314 318 322 325 327 327 328 330 331 332 334 337 340 342 343 347 348 346 346 347 347 348 346 344 345 346 345 343 344 347 347 345 345 345 343 342 342 343 343 343 342 343 343 343 342 341 340 338 338 339 341 343 344 343 343 343 343 343 343 342 341
265 266 266 267 267 268 268 270 271 273 274 276 277 278 279 280 281 283 286 289 292 296 299 301 304 305 306 308 313 319 322 323 324 325 328 329 330 332 334 337 338 340 344 345 344 343 343 343 343 344 343 343 344 343 339 340 345 345 343 343 342 340 339 339 341 342 342 342 343 343 342 341 339 338 336 336 337 340 342 342 341 340 340 340 341 343 344 344
Height
10740 10743 10747 10750 10754 10758 10761 10764 10768 10771 10774 10777 10780 10783 10785 10787 10789 10792 10794 10796 10798 10799 10801 10802 10804 10805 10806 10808 10808 10809 10810 10810 10810 10811 10811 10810 10810 10809 10808 10807 10806 10805 10804 10802 10800 10797 10794 10791 10788 10785 10783 10780 10778 10775 10773 10770 10767 10765 10762 10759 10756 10754 10751 10748 10745 10743 10740 10737 10734 10731 10728 10724 10721 10718 10715 10712 10708 10705 10702 10699 10695 10692 10689 10686 10683 10680 10677 10674
10739 10742 10746 10749 10752 10756 10759 10763 10766 10769 10772 10775 10778 10781 10784 10786 10788 10790 10792 10794 10795 10797 10798 10799 10801 10802 10803 10804 10805 10806 10806 10806 10806 10806 10806 10806 10805 10804 10804 10803 10802 10800 10798 10796 10793 10791 10788 10785 10782 10780 10777 10775 10773 10771 10768 10765 10763 10760 10757 10754 10752 10749 10746 10744 10741 10739 10736 10733 10730 10727 10724 10721 10718 10714 10711 10707 10704 10700 10697 10693 10690 10686 10683 10680 10677 10674 10671 10668
10738 10741 10745 10748 10751 10754 10758 10761 10764 10767 10770 10773 10776 10779 10781 10784 10786 10788 10790 10791 10792 10794 10795 10796 10797 10799 10800 10800 10801 10802 10802 10802 10802 10802 10801 10801 10800 10800 10799 10798 10796 10794 10792 10789 10787 10785 10783 10780 10778 10775 10773 10771 10769 10766 10764 10761 10759 10756 10754 10751 10749 10746 10744 10741 10739 10736 10734 10731 10728 10724 10721 10718 10715 10711 10708 10704 10700 10697 10693 10689 10685 10682 10678 10674 10671 10668 10665 10661
10737 10740 10743 10746 10750 10753 10756 10759 10762 10765 10768 10770 10773 10776 10779 10781 10783 10785 10786 10787 10789 10790 10792 10793 10794 10795 10796 10796 10797 10797 10798 10797 10797 10796 10796 10796 10795 10795 10794 10792 10791 10789 10787 10784 10782 10780 10778 10776 10774 10771 10769 10767 10765 10763 10760 10758 10756 10754 10751 10749 10746 10744 10742 10739 10737 10734 10732 10729 10726 10723 10719 10716 10713 10709 10706 10702 10698 10694 10690 10686 10682 10678 10674 10670 10666 10663 10659 10655
10736 10739 10742 10745 10748 10751 10755 10758 10761 10764 10766 10769 10771 10774 10777 10779 10780 10782 10783 10785 10786 10788 10789 10790 10791 10792 10793 10793 10794 10794 10793 10793 10792 10792 10792 10791 10791 10790 10789 10787 10786 10784 10782 10780 10778 10776 10774 10772 10770 10768 10766 10764 10762 10760 10758 10756 10754 10752 10750 10748 10745 10743 10741 10738 10736 10733 10730 10727 10724 10721 10717 10714 10711 10707 10703 10699 10695 10691 10687 10683 10679 10675 10671 10667 10663 10659 10655 10651
10735 10738 10741 10744 10747 10750 10753 10756 10759 10762 10765 10767 10770 10772 10774 10776 10778 10779 10781 10782 10784 10786 10787 10788 10789 10790 10790 10790 10790 10790 10790 10789 10789 10789 10788 10787 10786 10786 10784 10783 10782 10780 10778 10776 10774 10773 10771 10769 10768 10766 10764 10762 10760 10759 10757 10755 10753 10752 10750 10748 10745 10743 10740 10738 10735 10732 10729 10725 10722 10719 10715 10712 10708 10704 10701 10697 10693 10688 10684 10680 10676 10671 10667 10663 10659 10654 10650 10646
10734 10737 10740 10743 10745 10748 10751 10754 10757 10760 10763 10765 10768 10770 10771 10773 10774 10776 10778 10780 10782 10783 10784 10785 10786 10786 10786 10787 10787 10786 10787 10786 10785 10784 10783 10783 10782 10781 10780 10779 10778 10776 10774 10772 10771 10770 10769 10767 10766 10764 10762 10761 10759 10758 10756 10755 10753 10752 10750 10748 10746 10743 10741 10738 10735 10731 10728 10725 10721 10718 10714 10711 10707 10703 10699 10695 10691 10686 10682 10678 10673 10669 10664 10660 10655 10651 10646 10642
10733 10735 10738 10741 10744 10747 10750 10753 10755 10758 10761 10763 10765 10767 10768 10770 10771 10773 10775 10777 10779 10780 10780 10781 10782 10782 10783 10783 10783 10783 10783 10782 10781 10780 10780 10779 10779 10778 10777 10776 10775 10773 10772 10771 10770 10769 10768 10766 10765 10763 10762 10761 10759 10758 10757 10755 10754 10752 10750 10748 10746 10744 10741 10738 10735 10731 10728 10724 10721 10717 10714 10710 10706 10702 10698 10694 10689 10685 10681 10676 10671 10667 10662 10657 10653 10648 10643 10639
10731 10734 10737 10740 10743 10746 10749 10751 10754 10756 10758 10760 10762 10763 10765 10767 10768 10770 10772 10774 10775 10775 10776 10776 10777 10778 10779 10779 10779 10779 10779 10779 10778 10778 10778 10777 10777 10776 10775 10774 10773 10772 10771 10770 10769 10768 10767 10766 10765 10763 10762 10761 10760 10759 10757 10756 10754 10753 10751 10749 10747 10744 10741 10738 10734 10731 10728 10724 10721 10717 10713 10710 10705 10701 10697 10693 10688 10684 10679 10674 10670 10665 10660 10655 10650 10646 10641 10636
10731 10734 10736 10739 10742 10745 10747 10749 10751 10753 10755 10757 10758 10760 10762 10764 10766 10767 10768 10769 10770 10770 10771 10773 10774 10775 10775 10776 10776 10776 10776 10776 10776 10776 10776 10776 10775 10774 10774 10773 10773 10773 10772 10770 10769 10768 10767 10767 10766 10764 10763 10762 10761 10760 10758 10757 10755 10753 10751 10749 10746 10744 10741 10737 10734 10731 10727 10724 10720 10717 10713 10709 10705 10700 10696 10691 10687 10682 10677 10672 10668 10663 10658 10653 10648 10643 10638 10633
10730 10733 10736 10739 10741 10743 10745 10747 10749 10750 10752 10754 10756 10758 10760 10761 10762 10763 10764 10765 10766 10767 10768 10769 10770 10771 10772 10773 10773 10774 10775 10775 10775 10775 10775 10775 10775 10775 10775 10775 10774 10773 10772 10771 10771 10770 10769 10767 10767 10766 10765 10764 10762 10761 10759 10757 10755 10754 10751 10749 10746 10744 10741 10737 10734 10731 10727 10724 10720 10716 10712 10708 10704 10699 10694 10690 10685 10680 10676 10671 10666 10661 10655 10650 10645 10640 10635 10630
10729 10732 10735 10737 10739 10741 10743 10745 10747 10748 10750 10752 10753 10754 10756 10757 10758 10759 10760 10762 10763 10765 10766 10767 10768 10770 10771 10772 10773 10773 10774 10775 10775 10776 10776 10776 10776 10777 10777 10776 10776 10775 10774 10774 10774 10772 10770 10768 10769 10769 10767 10766 10764 10762 10760 10758 10756 10754 10752 10749 10747 10744 10741 10738 10734 10731 10727 10724 10720 10716 10712 10707 10703 10698 10693 10688 10684 10679 10674 10669 10664 10659 10653 10648 10643 10637 10632 10627
10728 10730 10733 10735 10737 10739 10741 10743 10745 10746 10748 10749 10750 10752 10753 10754 10756 10758 10759 10761 10762 10764 10765 10767 10768 10769 10771 10772 10773 10774 10775 10776 10777 10778 10778 10778 10779 10779 10779 10778 10778 10777 10776 10776 10776 10774 10770 10769 10771 10771 10769 10767 10765 10762 10761 10759 10757 10754 10752 10750 10747 10744 10741 10738 10734 10731 10727 10724 10720 10716 10711 10707 10702 10697 10693 10688 10683 10678 10673 10668 10662 10657 10652 10646 10640 10635 10629 10624
10727 10730 10732 10734 10736 10738 10740 10741 10743 10744 10746 10747 10749 10750 10752 10754 10756 10757 10759 10761 10762 10764 10766 10767 10768 10769 10772 10773 10774 10776 10777 10779 10779 10780 10780 10781 10781 10781 10781 10780 10779 10779 10778 10778 10777 10775 10771 10770 10773 10772 10770 10767 10765 10763 10761 10759 10757 10755 10752 10750 10747 10744 10741 10738 10734 10731 10727 10724 10720 10715 10711 10706 10702 10697 10692 10688 10683 10678 10672 10667 10661 10656 10650 10645 10639 10633 10627 10622
10727 10730 10732 10734 10736 10737 10739 10740 10742 10744 10745 10747 10749 10751 10752 10754 10756 10758 10760 10762 10764 10766 10767 10767 10768 10772 10774 10775 10777 10779 10780 10781 10781 10783 10784 10784 10783 10783 10783 10782 10780 10780 10779 10779 10778 10776 10772 10771 10773 10773 10770 10767 10765 10763 10761 10759 10757 10755 10752 10749 10747 10744 10741 10738 10735 10731 10727 10723 10720 10716 10711 10707 10702 10697 10693 10688 10683 10678 10672 10667 10661 10655 10649 10644 10638 10633 10627 10621
10728 10730 10732 10734 10736 10738 10739 10741 10743 10744 10746 10748 10750 10752 10754 10756 10758 10760 10762 10764 10766 10768 10769 10769 10771 10776 10778 10777 10779 10781 10781 10783 10784 10786 10786 10785 10785 10784 10784 10783 10782 10781 10780 10779 10778 10776 10773 10773 10774 10773 10770 10768 10766 10763 10761 10759 10756 10754 10752 10749 10747 10744 10741 10738 10734 10731 10727 10723 10720 10716 10711 10707 10703 10698 10693 10689 10684 10678 10673 10667 10661 10655 10649 10643 10638 10632 10627 10621
10728 10731 10733 10735 10737 10739 10741 10742 10744 10746 10748 10750 10752 10754 10757 10759 10761 10764 10766 10767 10769 10770 10772 10774 10776 10779 10780 10780 10781 10782 10783 10785 10787 10788 10788 10787 10786 10786 10786 10785 10783 10782 10781 10779 10779 10777 10774 10774 10775 10774 10771 10769 10766 10763 10760 10758 10756 10755 10752 10750 10747 10744 10741 10738 10734 10731 10727 10724 10720 10716 10712 10707 10703 10699 10694 10689 10684 10679 10673 10667 10661 10655 10649 10644 10638 10632 10626 10620
10730 10732 10734 10736 10739 10741 10743 10745 10747 10749 10751 10753 10755 10758 10761 10764 10766 10768 10769 10771 10772 10773 10775 10778 10780 10781 10782 10782 10783 10784 10786 10788 10789 10789 10789 10789 10788 10788 10787 10785 10784 10782 10781 10780 10779 10778 10776 10774 10775 10775 10773 10770 10766 10762 10759 10758 10757 10755 10753 10750 10747 10744 10741 10738 10734 10731 10728 10724 10720 10717 10712 10708 10703 10699 10695 10690 10685 10680 10674 10668 10662 10657 10651 10645 10639 10633 10627 10621
10733 10735 10738 10740 10742 10744 10746 10748 10750 10752 10755 10758 10761 10763 10765 10768 10771 10772 10774 10775 10775 10776 10779 10782 10783 10783 10784 10785 10786 10787 10788 10789 10790 10791 10791 10790 10789 10789 10788 10786 10784 10782 10782 10781 10780 10779 10776 10775 10777 10776 10773 10768 10764 10761 10759 10758 10757 10755 10753 10750 10747 10744 10741 10738 10735 10732 10728 10724 10721 10717 10713 10708 10704 10700 10695 10690 10685 10680 10675 10669 10663 10658 10652 10646 10641 10635 10629 10623
10738 10740 10742 10745 10747 10749 10751 10753 10755 10758 10760 10763 10766 10768 10769 10772 10775 10777 10778 10779 10779 10780 10782 10784 10785 10785 10786 10788 10789 10790 10790 10791 10791 10792 10791 10791 10790 10789 10788 10786 10784 10783 10784 10783 10781 10780 10778 10778 10779 10776 10771 10766 10763 10762 10761 10759 10757 10756 10753 10750 10747 10744 10741 10738 10735 10732 10729 10725 10721 10718 10713 10709 10704 10700 10696 10691 10686 10681 10675 10670 10665 10659 10653 10648 10642 10636 10631 10625
10744 10746 10748 10751 10753 10755 10757 10759 10761 10764 10765 10767 10770 10772 10773 10775 10777 10780 10783 10783 10783 10783 10785 10786 10786 10787 10789 10790 10791 10792 10792 10792 10792 10792 10792 10792 10790 10790 10789 10787 10785 10786 10785 10784 10782 10781 10779 10780 10778 10773 10769 10767 10765 10764 10762 10760 10758 10757 10754 10751 10748 10745 10741 10738 10734 10731 10728 10725 10721 10718 10713 10709 10705 10700 10696 10691 10686 10681 10675 10670 10666 10660 10655 10649 10643 10637 10632 10627
10751 10753 10755 10757 10759 10761 10763 10765 10767 10769 10770 10771 10774 10776 10777 10778 10780 10783 10786 10787 10786 10786 10787 10788 10789 10790 10791 10792 10793 10793 10792 10793 10793 10793 10793 10792 10791 10790 10789 10788 10788 10787 10786 10784 10783 10782 10781 10780 10776 10772 10770 10768 10766 10765 10763 10761 10759 10757 10755 10752 10749 10745 10742 10738 10735 10732 10728 10724 10721 10717 10713 10709 10704 10700 10695 10691 10686 10681 10675 10671 10667 10661 10656 10650 10644 10639 10634 10628
10757 10759 10761 10763 10765 10767 10769 10770 10772 10773 10775 10775 10777 10779 10780 10782 10783 10786 10789 10789 10789 10790 10790 10790 10791 10792 10793 10794 10794 10794 10794 10794 10794 10794 10794 10792 10791 10791 10790 10790 10789 10787 10786 10785 10784 10783 10781 10778 10775 10773 10771 10769 10767 10765 10763 10761 10760 10758 10756 10753 10750 10746 10742 10739 10736 10732 10729 10725 10721 10717 10712 10708 10704 10699 10695 10690 10685 10681 10676 10672 10668 10662 10657 10651 10645 10640 10635 10629
10763 10765 10767 10769 10770 10772 10773 10775 10776 10778 10779 10780 10780 10782 10783 10785 10787 10789 10791 10791 10792 10792 10792 10793 10794 10794 10795 10796 10795 10795 10795 10796 10796 10795 10794 10793 10792 10792 10791 10791 10790 10788 10787 10786 10784 10782 10780 10778 10776 10774 10772 10770 10768 10766 10764 10762 10761 10759 10756 10753 10750 10746 10743 10740 10736 10733 10729 10726 10722 10717 10713 10708 10704 10699 10695 10690 10686 10682 10678 10674 10669 10664 10658 10653 10647 10642 10636 10631
10769 10770 10772 10773 10775 10776 10777 10779 10780 10782 10783 10783 10783 10785 10787 10788 10790 10791 10793 10794 10794 10794 10795 10796 10796 10797 10797 10797 10797 10797 10797 10797 10797 10796 10795 10794 10794 10793 10793 10792 10791 10789 10788 10786 10784 10783 10781 10779 10777 10775 10772 10770 10768 10767 10765 10763 10761 10759 10756 10753 10749 10746 10743 10740 10736 10733 10730 10726 10723 10718 10714 10710 10705 10700 10696 10692 10688 10683 10679 10674 10670 10664 10659 10654 10648 10643 10638 10633
10773 10774 10776 10777 10779 10780 10781 10783 10784 10785 10785 10786 10787 10789 10790 10791 10793 10794 10795 10796 10796 10797 10797 10798 10798 10798 10798 10798 10798 10798 10798 10798 10798 10797 10796 10796 10795 10795 10794 10793 10791 10789 10788 10786 10785 10783 10782 10780 10778 10775 10773 10771 10769 10767 10765 10764 10762 10759 10756 10752 10749 10746 10743 10739 10736 10733 10730 10726 10722 10718 10714 10710 10706 10702 10697 10693 10689 10684 10680 10675 10670 10665 10660 10654 10649 10645 10640 10635
10777 10779 10780 10781 10783 10784 10785 10786 10787 10787 10788 10789 10791 10792 10793 10794 10796 10797 10798 10798 10798 10799 10799 10799 10800 10800 10800 10799 10799 10799 10799 10799 10799 10798 10797 10797 10797 10796 10795 10793 10791 10790 10788 10787 10785 10784 10782 10780 10778 10776 10774 10772 10770 10768 10766 10764 10761 10758 10755 10752 10749 10746 10743 10739 10736 10733 10729 10725 10721 10717 10713 10709 10705 10701 10697 10693 10689 10685 10680 10675 10670 10665 10661 10656 10651 10647 10642 10637
10782 10783 10784 10786 10786 10787 10788 10789 10790 10791 10792 10793 10794 10795 10796 10797 10798 10799 10799 10799 10800 10801 10801 10801 10801 10801 10801 10801 10801 10801 10801 10801 10800 10799 10799 10798 10797 10796 10795 10793 10791 10790 10788 10787 10786 10784 10782 10780 10778 10776 10775 10773 10771 10768 10766 10763 10760 10757 10754 10751 10748 10745 10742 10739 10736 10733 10729 10725 10721 10717 10713 10709 10705 10700 10696 10692 10689 10684 10680 10675 10670 10666 10661 10657 10653 10649 10644 10638
10786 10787 10788 10789 10790 10791 10792 10792 10793 10794 10796 10796 10797 10798 10799 10800 10800 10801 10801 10801 10802 10802 10802 10802 10802 10802 10802 10802 10802 10802 10802 10801 10800 10800 10800 10799 10798 10797 10795 10794 10792 10791 10789 10788 10786 10784 10783 10781 10779 10777 10775 10773 10770 10768 10765 10762 10759 10757 10754 10751 10748 10745 10742 10738 10735 10732 10729 10725 10721 10717 10713 10709 10705 10701 10696 10692 10688 10684 10680 10675 10671 10667 10662 10658 10654 10649 10644 10639
10790 10790 10791 10792 10793 10794 10795 10796 10797 10798 10799 10799 10800 10801 10801 10802 10802 10803 10803 10803 10804 10804 10803 10803 10803 10803 10803 10803 10803 10803 10802 10802 10801 10801 10801 10800 10798 10797 10795 10794 10793 10791 10790 10788 10786 10785 10783 10781 10779 10777 10775 10772 10770 10767 10765 10762 10759 10757 10754 10751 10748 10745 10742 10739 10735 10732 10728 10725 10721 10717 10713 10709 10705 10702 10697 10693 10689 10684 10680 10676 10672 10668 10663 10659 10654 10649 10644 10639
10793 10794 10795 10795 10796 10797 10798 10799 10800 10800 10801 10802 10803 10803 10804 10804 10804 10804 10805 10805 10805 10805 10805 10805 10805 10805 10804 10804 10804 10803 10803 10802 10802 10801 10800 10799 10798 10796 10795 10794 10793 10792 10790 10788 10787 10785 10783 10781 10779 10776 10774 10771 10769 10767 10764 10762 10759 10756 10753 10750 10747 10745 10742 10739 10736 10732 10728 10724 10721 10717 10714 10710 10706 10702 10698 10694 10690 10685 10680 10676 10672 10667 10663 10658 10653 10649 10644 10640
10796 10797 10798 10798 10799 10800 10801 10801 10802 10803 10803 10804 10805 10805 10806 10806 10806 10806 10807 10807 10807 10807 10807 10806 10806 10806 10805 10805 10804 10804 10803 10802 10802 10801 10800 10799 10798 10797 10796 10794 10793 10791 10790 10788 10786 10785 10783 10781 10779 10776 10774 10771 10769 10767 10764 10762 10759 10757 10754 10751 10748 10745 10741 10738 10735 10732 10728 10725 10721 10717 10714 10710 10707 10702 10698 10694 10690 10686 10681 10676 10671 10667 10662 10658 10653 10649 10644 10640
10799 10800 10800 10801 10802 10802 10803 10804 10804 10805 10806 10806 10806 10807 10807 10808 10808 10808 10808 10808 10808 10808 10808 10808 10807 10807 10806 10806 10805 10804 10803 10803 10802 10801 10800 10799 10798 10797 10795 10794 10793 10791 10789 10788 10786 10785 10783 10780 10778 10776 10773 10771 10769 10767 10764 10762 10759 10756 10754 10751 10748 10745 10741 10738 10734 10731 10729 10726 10722 10718 10714 10710 10706 10703 10699 10694 10690 10685 10681 10677 10672 10667 10662 10658 10653 10649 10645 10641
10801 10802 10802 10803 10804 10804 10805 10806 10806 10807 10807 10807 10808 10808 10808 10809 10809 10809 10809 10809 10809 10809 10809 10809 10808 10808 10807 10807 10806 10805 10804 10803 10802 10801 10800 10798 10797 10796 10795 10794 10792 10791 10789 10787 10786 10784 10781 10779 10777 10775 10773 10771 10768 10766 10764 10761 10758 10755 10753 10750 10747 10745 10742 10739 10735 10732 10729 10726 10722 10718 10714 10710 10706 10702 10698 10694 10689 10685 10681 10677 10672 10667 10663 10658 10654 10650 10646 10642
10803 10804 10804 10805 10806 10806 10807 10807 10808 10808 10808 10809 10809 10809 10809 10810 10810 10810 10810 10810 10810 10810 10810 10810 10809 10809 10808 10807 10807 10806 10805 10804 10802 10801 10800 10798 10797 10796 10794 10793 10792 10790 10789 10787 10785 10783 10781 10779 10777 10774 10772 10770 10768 10766 10763 10761 10758 10756 10753 10750 10747 10744 10741 10738 10735 10731 10728 10725 10722 10717 10714 10711 10706 10701 10697 10693 10689 10685 10681 10676 10672 10667 10663 10659 10654 10650 10647 10643
10805 10806 10806 10807 10808 10808 10808 10809 10809 10809 10810 10810 10810 10810 10810 10811 10811 10811 10811 10811 10811 10810 10810 10810 10809 10809 10808 10807 10806 10806 10805 10804 10803 10801 10800 10799 10797 10796 10794 10793 10791 10789 10788 10786 10784 10783 10781 10779 10777 10774 10772 10770 10767 10765 10763 10761 10758 10756 10753 10750 10747 10744 10741 10738 10734 10730 10727 10723 10721 10717 10712 10709 10706 10702 10697 10693 10689 10685 10681 10676 10672 10667 10663 10659 10655 10650 10646 10643
10807 10808 10808 10809 10809 10810 10810 10810 10810 10811 10811 10811 10811 10811 10811 10811 10811 10811 10811 10811 10811 10810 10810 10810 10809 10808 10808 10807 10806 10805 10804 10803 10802 10801 10800 10799 10797 10796 10794 10793 10791 10789 10787 10785 10784 10782 10781 10779 10777 10775 10773 10770 10767 10765 10763 10761 10758 10756 10753 10750 10747 10744 10741 10738 10735 10731 10727 10722 10719 10717 10712 10707 10705 10702 10697 10693 10688 10684 10681 10676 10672 10668 10663 10659 10655 10651 10646 10642
10809 10809 10810 10810 10810 10811 10811 10811 10811 10811 10812 10812 10812 10812 10812 10812 10812 10812 10811 10811 10811 10810 10810 10809 10809 10808 10807 10806 10805 10805 10804 10803 10802 10801 10800 10799 10797 10796 10794 10793 10791 10789 10787 10785 10783 10782 10780 10779 10777 10775 10773 10771 10768 10766 10763 10761 10759 10756 10754 10751 10748 10744 10741 10738 10735 10732 10728 10723 10718 10715 10711 10706 10702 10699 10696 10692 10688 10684 10680 10676 10671 10667 10663 10659 10654 10651 10646 10642
10810 10810 10811 10811 10811 10811 10812 10812 10812 10812 10812 10812 10812 10812 10812 10812 10812 10812 10812 10811 10811 10810 10810 10809 10808 10807 10807 10806 10805 10805 10804 10803 10802 10801 10800 10798 10797 10796 10794 10792 10791 10789 10788 10786 10784 10782 10780 10779 10777 10775 10774 10772 10769 10767 10764 10761 10758 10756 10753 10750 10747 10744 10740 10737 10734 10732 10728 10724 10720 10716 10711 10706 10701 10697 10694 10690 10687 10683 10679 10675 10670 10666 10662 10658 10653 10649 10645 10641
10811 10811 10811 10812 10812 10812 10812 10812 10813 10813 10813 10813 10813 10813 10813 10812 10812 10812 10811 10811 10810 10810 10809 10809 10808 10807 10807 10806 10805 10805 10804 10803 10802 10801 10799 10798 10797 10795 10794 10792 10790 10789 10787 10786 10784 10782 10780 10778 10776 10775 10773 10772 10770 10767 10764 10761 10758 10755 10752 10749 10746 10742 10738 10734 10731 10729 10726 10723 10720 10717 10713 10707 10701 10697 10692 10688 10685 10681 10678 10673 10669 10665 10660 10656 10652 10647 10644 10640
10811 10811 10812 10812 10812 10812 10812 10812 10813 10813 10813 10813 10813 10813 10812 10812 10812 10812 10811 10811 10810 10810 10809 10808 10808 10807 10806 10806 10805 10804 10803 10802 10801 10800 10799 10797 10796 10795 10793 10791 10790 10788 10787 10785 10783 10782 10780 10777 10775 10773 10772 10770 10769 10767 10764 10761 10758 10754 10751 10748 10745 10741 10737 10733 10729 10726 10724 10721 10718 10716 10713 10708 10702 10697 10692 10687 10683 10679 10676 10672 10668 10663 10659 10655 10650 10645 10642 10638
10811 10811 10811 10812 10812 10812 10812 10812 10813 10813 10813 10813 10812 10812 10812 10812 10812 10811 10811 10810 10810 10809 10809 10808 10807 10807 10806 10805 10804 10803 10802 10801 10800 10799 10798 10797 10795 10794 10792 10791 10789 10788 10786 10784 10782 10781 10779 10777 10775 10772 10770 10768 10767 10765 10763 10760 10756 10753 10749 10746 10743 10740 10737 10733 10728 10724 10721 10719 10716 10713 10711 10708 10702 10698 10693 10687 10683 10678 10674 10669 10665 10661 10657 10654 10649 10644 10639 10636
10810 10811 10811 10811 10811 10811 10812 10812 10812 10812 10812 10812 10812 10812 10811 10811 10811 10811 10810 10810 10809 10809 10808 10807 10807 10806 10805 10804 10804 10803 10802 10801 10799 10798 10797 10796 10794 10793 10792 10790 10788 10787 10785 10784 10782 10780 10778 10776 10774 10771 10768 10766 10764 10762 10760 10757 10754 10751 10748 10744 10742 10739 10735 10731 10727 10723 10719 10716 10714 10711 10709 10707 10702 10698 10694 10688 10683 10679 10674 10668 10663 10658 10654 10651 10648 10644 10638 10633
10809 10809 10810 10810 10810 10810 10810 10811 10811 10811 10811 10811 10811 10810 10810 10810 10810 10810 10809 10809 10808 10808 10807 10806 10806 10805 10804 10803 10802 10802 10801 10800 10799 10797 10796 10795 10794 10792 10791 10790 10788 10786 10785 10783 10782 10780 10778 10776 10774 10771 10767 10764 10762 10759 10756 10755 10753 10750 10747 10743 10740 10737 10734 10730 10726 10721 10717 10714 10711 10708 10704 10702 10699 10696 10692 10688 10683 10679 10675 10670 10664 10657 10652 10648 10646 10643 10638 10633
10808 10808 10808 10809 10809 10809 10809 10809 10809 10809 10809 10809 10809 10809 10809 10809 10809 10809 10808 10808 10807 10807 10806 10806 10805 10804 10803 10802 10801 10801 10800 10799 10798 10797 10795 10794 10793 10792 10790 10789 10787 10786 10784 10782 10780 10778 10776 10775 10774 10773 10770 10766 10764 10761 10757 10755 10753 10750 10746 10742 10738 10734 10732 10729 10725 10721 10716 10712 10708 10705 10701 10696 10693 10690 10688 10684 10681 10677 10673 10668 10663 10658 10652 10647 10645 10642 10638 10634
10807 10807 10807 10807 10808 10808 10808 10808 10808 10808 10808 10808 10808 10808 10808 10808 10808 10807 10807 10806 10806 10806 10805 10805 10804 10803 10802 10801 10800 10799 10799 10798 10796 10795 10794 10793 10792 10790 10789 10787 10786 10784 10782 10780 10777 10775 10773 10771 10769 10769 10768 10765 10762 10759 10755 10752 10751 10748 10744 10740 10736 10732 10728 10726 10723 10719 10715 10710 10706 10702 10699 10695 10689 10685 10683 10680 10677 10674 10670 10665 10660 10655 10651 10646 10643 10641 10638 10634
10805 10805 10806 10806 10806 10807 10807 10807 10807 10807 10807 10807 10807 10807 10807 10807 10806 10806 10806 10805 10804 10804 10803 10803 10802 10802 10801 10800 10799 10798 10797 10796 10795 10794 10792 10791 10790 10788 10787 10786 10784 10783 10781 10779 10776 10773 10770 10767 10764 10763 10763 10761 10758 10755 10752 10748 10747 10746 10742 10738 10734 10730 10726 10722 10719 10716 10712 10709 10705 10700 10696 10694 10689 10684 10681 10678 10674 10670 10667 10663 10658 10652 10647 10643 10640 10638 10636 10632
10803 10804 10804 10804 10805 10805 10805 10806 10806 10806 10806 10806 10806 10805 10805 10805 10805 10804 10804 10803 10803 10802 10802 10801 10800 10800 10799 10798 10797 10796 10795 10794 10793 10792 10790 10789 10787 10786 10785 10783 10782 10781 10779 10777 10775 10772 10769 10766 10762 10759 10758 10757 10754 10752 10749 10745 10744 10743 10740 10736 10732 10728 10723 10719 10716 10713 10709 10706 10702 10698 10693 10691 10687 10683 10679 10676 10672 10668 10663 10660 10656 10651 10645 10640 10636 10633 10631 10629
10801 10801 10801 10802 10802 10803 10803 10803 10804 10804 10804 10804 10804 10803 10803 10803 10802 10802 10802 10801 10801 10800 10799 10799 10798 10797 10797 10796 10795 10794 10793 10792 10791 10790 10788 10787 10785 10784 10783 10781 10780 10778 10777 10775 10773 10770 10767 10764 10760 10755 10753 10753 10751 10749 10746 10743 10740 10739 10736 10732 10729 10725 10721 10717 10714 10710 10706 10701 10698 10695 10691 10686 10683 10680 10676 10673 10670 10666 10661 10657 10653 10649 10644 10639 10635 10631 10628 10625
10798 10798 10799 10799 10799 10800 10800 10800 10801 10801 10801 10801 10801 10801 10800 10800 10800 10799 10799 10798 10798 10797 10797 10796 10795 10795 10794 10793 10793 10792 10791 10789 10788 10787 10786 10784 10783 10781 10780 10779 10778 10776 10774 10772 10770 10768 10765 10762 10759 10754 10750 10749 10747 10744 10742 10740 10738 10736 10732 10729 10726 10722 10719 10715 10711 10707 10703 10699 10695 10692 10689 10684 10679 10675 10672 10670 10667 10664 10660 10655 10650 10646 10643 10639 10635 10630 10625 10621
10794 10795 10795 10796 10796 10796 10797 10797 10797 10798 10798 10798 10798 10798 10797 10797 10797 10796 10796 10795 10795 10794 10794 10793 10792 10792 10791 10790 10789 10789 10788 10787 10785 10784 10783 10781 10780 10779 10777 10776 10775 10773 10772 10770 10767 10765 10763 10760 10758 10754 10749 10746 10744 10741 10738 10737 10736 10734 10730 10726 10723 10719 10715 10712 10709 10705 10701 10697 10692 10688 10685 10682 10677 10672 10667 10665 10664 10661 10657 10653 10648 10643 10640 10637 10634 10629 10624 10619
10791 10791 10792 10792 10792 10793 10793 10793 10793 10794 10794 10794 10794 10794 10794 10794 10793 10793 10793 10792 10791 10791 10791 10790 10789 10789 10788 10787 10786 10786 10785 10784 10782 10781 10780 10778 10777 10775 10774 10773 10772 10770 10769 10767 10764 10762 10760 10758 10756 10753 10748 10744 10742 10739 10736 10734 10734 10731 10727 10723 10720 10716 10712 10709 10706 10703 10699 10694 10689 10685 10681 10678 10675 10671 10665 10660 10658 10657 10654 10650 10647 10643 10638 10634 10630 10627 10623 10618